| time (UTC) | temp C | wind direction | speed KPH | gust KPH | rain 1hr cm | rain 24hr cm | rain mn cm | humidity % | barometer mb |
| 20260504211132 | 23 | 217 | 4.8 | 4.8 | 0.00 | 0.00 | 0.00 | 39 | 1015.6 |
| 20260504210630 | 23 | 253 | 1.6 | 3.2 | 0.00 | 0.00 | 0.00 | 39 | 1015.5 |
| 20260504210126 | 23 | 201 | 3.2 | 3.2 | 0.00 | 0.00 | 0.00 | 39 | 1015.6 |
| 20260504205624 | 23 | 217 | 8.0 | 11.3 | 0.00 | 0.00 | 0.00 | 38 | 1015.7 |
| 20260504205121 | 23 | 200 | 1.6 | 3.2 | 0.00 | 0.00 | 0.00 | 38 | 1015.7 |
| 20260504204620 | 23 | 216 | 3.2 | 3.2 | 0.00 | 0.00 | 0.00 | 39 | 1015.7 |
| 20260504204118 | 23 | 238 | 4.8 | 4.8 | 0.00 | 0.00 | 0.00 | 39 | 1015.8 |
| 20260504203616 | 23 | 186 | 1.6 | 3.2 | 0.00 | 0.00 | 0.00 | 38 | 1016.0 |
| 20260504203113 | 23 | 202 | 3.2 | 3.2 | 0.00 | 0.00 | 0.00 | 40 | 1015.7 |
| 20260504202608 | 23 | 167 | 6.4 | 8.0 | 0.00 | 0.00 | 0.00 | 39 | 1016.0 |
| 20260504202106 | 23 | 225 | 8.0 | 12.9 | 0.00 | 0.00 | 0.00 | 38 | 1016.0 |
| 20260504201602 | 23 | 209 | 3.2 | 3.2 | 0.00 | 0.00 | 0.00 | 39 | 1016.1 |
| 20260504201100 | 23 | 171 | 3.2 | 3.2 | 0.00 | 0.00 | 0.00 | 39 | 1016.2 |
| 20260504200556 | 23 | 199 | 4.8 | 9.7 | 0.00 | 0.00 | 0.00 | 42 | 1016.1 |
| 20260504200053 | 23 | 139 | 8.0 | 11.3 | 0.00 | 0.00 | 0.00 | 40 | 1016.3 |
| 20260504195549 | 23 | 189 | 1.6 | 3.2 | 0.00 | 0.00 | 0.00 | 41 | 1016.2 |
| 20260504195046 | 23 | 199 | 1.6 | 3.2 | 0.00 | 0.00 | 0.00 | 43 | 1016.2 |
| 20260504194543 | 23 | 225 | 1.6 | 1.6 | 0.00 | 0.00 | 0.00 | 43 | 1016.4 |
| 20260504194038 | 23 | 238 | 1.6 | 1.6 | 0.00 | 0.00 | 0.00 | 43 | 1016.7 |
| 20260504193535 | 23 | 223 | 3.2 | 4.8 | 0.00 | 0.00 | 0.00 | 42 | 1016.5 |
| 20260504193034 | 23 | 198 | 1.6 | 3.2 | 0.00 | 0.00 | 0.00 | 43 | 1016.6 |
| 20260504192532 | 23 | 243 | 0.0 | 0.0 | 0.00 | 0.00 | 0.00 | 41 | 1016.6 |
| 20260504192030 | 23 | 226 | 3.2 | 4.8 | 0.00 | 0.00 | 0.00 | 43 | 1016.6 |
| 20260504191527 | 23 | 253 | 1.6 | 3.2 | 0.00 | 0.00 | 0.00 | 42 | 1016.6 |
| 20260504191023 | 23 | 176 | 3.2 | 8.0 | 0.00 | 0.00 | 0.00 | 43 | 1016.8 |
| 20260504190519 | 23 | 140 | 8.0 | 11.3 | 0.00 | 0.00 | 0.00 | 40 | 1016.7 |
| 20260504190015 | 23 | 232 | 1.6 | 1.6 | 0.00 | 0.00 | 0.00 | 41 | 1016.9 |
| 20260504185513 | 23 | 247 | 0.0 | 1.6 | 0.00 | 0.00 | 0.00 | 43 | 1017.0 |
| 20260504185009 | 23 | 260 | 3.2 | 3.2 | 0.00 | 0.00 | 0.00 | 42 | 1016.9 |
| 20260504184505 | 23 | 227 | 3.2 | 3.2 | 0.00 | 0.00 | 0.00 | 42 | 1017.2 |
| 20260504184000 | 24 | 330 | 8.0 | 11.3 | 0.00 | 0.00 | 0.00 | 40 | 1017.2 |
| 20260504183458 | 23 | 252 | 0.0 | 0.0 | 0.00 | 0.00 | 0.00 | 43 | 1017.2 |
| 20260504182955 | 24 | 245 | 1.6 | 3.2 | 0.00 | 0.00 | 0.00 | 43 | 1017.2 |
| 20260504182452 | 24 | 247 | 0.0 | 0.0 | 0.00 | 0.00 | 0.00 | 44 | 1017.3 |
| 20260504181950 | 24 | 180 | 3.2 | 3.2 | 0.00 | 0.00 | 0.00 | 41 | 1017.2 |
| 20260504181446 | 24 | 257 | 0.0 | 0.0 | 0.00 | 0.00 | 0.00 | 42 | 1017.2 |
| 20260504180945 | 24 | 204 | 8.0 | 11.3 | 0.00 | 0.00 | 0.00 | 40 | 1017.4 |
| 20260504180444 | 23 | 230 | 1.6 | 1.6 | 0.00 | 0.00 | 0.00 | 43 | 1017.4 |
| 20260504175942 | 24 | 191 | 3.2 | 3.2 | 0.00 | 0.00 | 0.00 | 41 | 1017.5 |
| 20260504175438 | 23 | 251 | 3.2 | 4.8 | 0.00 | 0.00 | 0.00 | 44 | 1017.4 |
| 20260504174936 | 25 | 237 | 1.6 | 1.6 | 0.00 | 0.00 | 0.00 | 44 | 1017.4 |
| 20260504174433 | 24 | 165 | 4.8 | 4.8 | 0.00 | 0.00 | 0.00 | 40 | 1017.7 |
| 20260504173931 | 24 | 167 | 3.2 | 3.2 | 0.00 | 0.00 | 0.00 | 42 | 1017.5 |
| 20260504173427 | 23 | 253 | 1.6 | 1.6 | 0.00 | 0.00 | 0.00 | 41 | 1017.4 |
| 20260504172925 | 23 | 209 | 4.8 | 4.8 | 0.00 | 0.00 | 0.00 | 41 | 1017.3 |
| 20260504172420 | 23 | 201 | 0.0 | 1.6 | 0.00 | 0.00 | 0.00 | 44 | 1017.5 |
| 20260504171917 | 23 | 246 | 1.6 | 3.2 | 0.00 | 0.00 | 0.00 | 43 | 1017.9 |
| 20260504171414 | 22 | 228 | 1.6 | 1.6 | 0.00 | 0.00 | 0.00 | 44 | 1017.9 |
| 20260504170911 | 23 | 229 | 1.6 | 3.2 | 0.00 | 0.00 | 0.00 | 42 | 1017.8 |
| 20260504170408 | 23 | 207 | 1.6 | 1.6 | 0.00 | 0.00 | 0.00 | 43 | 1017.7 |
| 20260504160326 | 22 | 209 | 1.6 | 1.6 | 0.00 | 0.00 | 0.00 | 42 | 1018.7 |
| 20260504150751 | 21 | 337 | 1.6 | 3.2 | 0.00 | 0.00 | 0.00 | 44 | 1019.6 |
| 20260504150248 | 21 | 269 | 0.0 | 0.0 | 0.00 | 0.00 | 0.00 | 46 | 1019.8 |
| 20260504141218 | 19 | 245 | 0.0 | 0.0 | 0.00 | 0.00 | 0.00 | 45 | 1019.4 |
| 20260504140714 | 18 | 243 | 0.0 | 1.6 | 0.00 | 0.00 | 0.00 | 52 | 1019.5 |
| 20260504140209 | 18 | 240 | 0.0 | 0.0 | 0.00 | 0.00 | 0.00 | 51 | 1019.4 |
| 20260504130638 | 13 | 247 | 0.0 | 0.0 | 0.00 | 0.00 | 0.00 | 72 | 1019.2 |
| 20260504130135 | 13 | 248 | 0.0 | 0.0 | 0.00 | 0.00 | 0.00 | 73 | 1019.5 |
| 20260504110526 | 5 | 222 | 1.6 | 1.6 | 0.00 | 0.00 | 0.00 | 97 | 1018.6 |
| 20260504100442 | 5 | 244 | 0.0 | 0.0 | 0.00 | 0.00 | 0.00 | 95 | 1018.8 |
| 20260504081841 | 6 | 246 | 0.0 | 0.0 | 0.00 | 0.00 | 0.00 | 93 | 1018.8 |
| 20260504081338 | 7 | 246 | 0.0 | 0.0 | 0.00 | 0.00 | 0.00 | 91 | 1018.5 |
| 20260504080833 | 7 | 249 | 0.0 | 0.0 | 0.00 | 0.00 | 0.00 | 90 | 1018.6 |
| 20260504080331 | 7 | 250 | 0.0 | 0.0 | 0.00 | 0.00 | 0.00 | 90 | 1018.6 |
| 20260504070258 | 8 | 250 | 0.0 | 0.0 | 0.00 | 0.00 | 0.00 | 86 | 1018.6 |
| 20260504060219 | 10 | 261 | 0.0 | 0.0 | 0.00 | 0.00 | 0.00 | 80 | 1018.8 |
| 20260504050646 | 11 | 239 | 0.0 | 0.0 | 0.00 | 0.00 | 0.00 | 74 | 1019.0 |
| 20260504050143 | 11 | 234 | 0.0 | 0.0 | 0.00 | 0.00 | 0.00 | 72 | 1018.8 |
| 20260504045640 | 11 | 231 | 0.0 | 0.0 | 0.00 | 0.00 | 0.00 | 72 | 1018.9 |
| 20260504045135 | 11 | 236 | 0.0 | 0.0 | 0.00 | 0.00 | 0.00 | 72 | 1018.9 |
| 20260504044633 | 11 | 247 | 1.6 | 1.6 | 0.00 | 0.00 | 0.00 | 71 | 1018.9 |
| 20260504044129 | 11 | 246 | 1.6 | 1.6 | 0.00 | 0.00 | 0.00 | 71 | 1018.9 |
| 20260504043627 | 11 | 248 | 0.0 | 1.6 | 0.00 | 0.00 | 0.00 | 71 | 1018.8 |
| 20260504043124 | 12 | 229 | 0.0 | 1.6 | 0.00 | 0.00 | 0.00 | 70 | 1018.7 |
| 20260504042621 | 12 | 231 | 0.0 | 1.6 | 0.00 | 0.00 | 0.00 | 70 | 1018.8 |
| 20260504042118 | 12 | 223 | 1.6 | 1.6 | 0.00 | 0.00 | 0.00 | 69 | 1018.6 |
| 20260504041613 | 12 | 218 | 1.6 | 1.6 | 0.00 | 0.00 | 0.00 | 68 | 1018.5 |
| 20260504041110 | 12 | 219 | 1.6 | 1.6 | 0.00 | 0.00 | 0.00 | 68 | 1018.7 |
| 20260504040607 | 12 | 222 | 1.6 | 1.6 | 0.00 | 0.00 | 0.00 | 67 | 1018.7 |
| 20260504040104 | 12 | 218 | 1.6 | 1.6 | 0.00 | 0.00 | 0.00 | 67 | 1019.0 |
| 20260504035601 | 12 | 224 | 1.6 | 1.6 | 0.00 | 0.00 | 0.00 | 67 | 1019.0 |
| 20260504035057 | 12 | 226 | 1.6 | 1.6 | 0.00 | 0.00 | 0.00 | 67 | 1018.9 |
| 20260504034555 | 12 | 221 | 1.6 | 1.6 | 0.00 | 0.00 | 0.00 | 66 | 1018.8 |
| 20260504034051 | 12 | 224 | 0.0 | 1.6 | 0.00 | 0.00 | 0.00 | 67 | 1018.5 |
| 20260504033549 | 12 | 220 | 0.0 | 0.0 | 0.00 | 0.00 | 0.00 | 66 | 1018.7 |
| 20260504033047 | 12 | 228 | 0.0 | 0.0 | 0.00 | 0.00 | 0.00 | 66 | 1018.9 |
| 20260504032543 | 12 | 229 | 0.0 | 0.0 | 0.00 | 0.00 | 0.00 | 66 | 1019.0 |
| 20260504032040 | 12 | 229 | 0.0 | 0.0 | 0.00 | 0.00 | 0.00 | 66 | 1019.0 |
| 20260504031537 | 12 | 229 | 0.0 | 1.6 | 0.00 | 0.00 | 0.00 | 66 | 1018.9 |
| 20260504031033 | 12 | 231 | 0.0 | 1.6 | 0.00 | 0.00 | 0.00 | 65 | 1019.0 |
| 20260504030531 | 12 | 230 | 0.0 | 0.0 | 0.00 | 0.00 | 0.00 | 65 | 1019.1 |
| 20260504030027 | 12 | 232 | 0.0 | 0.0 | 0.00 | 0.00 | 0.00 | 65 | 1019.1 |
| 20260504025524 | 12 | 230 | 1.6 | 1.6 | 0.00 | 0.00 | 0.00 | 64 | 1018.9 |
| 20260504025021 | 12 | 212 | 0.0 | 1.6 | 0.00 | 0.00 | 0.00 | 64 | 1018.8 |
| 20260504024518 | 13 | 224 | 1.6 | 1.6 | 0.00 | 0.00 | 0.00 | 64 | 1018.9 |
| 20260504024015 | 13 | 230 | 0.0 | 0.0 | 0.00 | 0.00 | 0.00 | 63 | 1019.0 |
| 20260504023511 | 13 | 232 | 0.0 | 0.0 | 0.00 | 0.00 | 0.00 | 62 | 1018.9 |
| 20260504023007 | 13 | 230 | 1.6 | 3.2 | 0.00 | 0.00 | 0.00 | 62 | 1018.8 |
| 20260504022503 | 13 | 223 | 1.6 | 1.6 | 0.00 | 0.00 | 0.00 | 62 | 1018.7 |
| 20260504022000 | 12 | 232 | 0.0 | 0.0 | 0.00 | 0.00 | 0.00 | 63 | 1018.8 |
| 20260504021457 | 13 | 233 | 0.0 | 0.0 | 0.00 | 0.00 | 0.00 | 62 | 1018.7 |
| 20260504020954 | 13 | 234 | 0.0 | 0.0 | 0.00 | 0.00 | 0.00 | 61 | 1018.5 |
| 20260504020451 | 13 | 232 | 0.0 | 0.0 | 0.00 | 0.00 | 0.00 | 61 | 1018.5 |
| 20260504015948 | 13 | 235 | 0.0 | 0.0 | 0.00 | 0.00 | 0.00 | 60 | 1018.3 |
| 20260504015444 | 13 | 228 | 0.0 | 0.0 | 0.00 | 0.00 | 0.00 | 60 | 1018.5 |
| 20260504014940 | 13 | 240 | 0.0 | 0.0 | 0.00 | 0.00 | 0.00 | 60 | 1018.4 |
| 20260504014436 | 13 | 236 | 0.0 | 0.0 | 0.00 | 0.00 | 0.00 | 59 | 1017.9 |
| 20260504013933 | 12 | 231 | 0.0 | 0.0 | 0.00 | 0.00 | 0.00 | 60 | 1018.2 |
| 20260504013432 | 12 | 235 | 0.0 | 0.0 | 0.00 | 0.00 | 0.00 | 63 | 1018.1 |
| 20260504012927 | 13 | 248 | 0.0 | 0.0 | 0.00 | 0.00 | 0.00 | 64 | 1017.8 |
| 20260504012425 | 13 | 225 | 0.0 | 0.0 | 0.00 | 0.00 | 0.00 | 59 | 1017.8 |
| 20260504011922 | 13 | 234 | 0.0 | 0.0 | 0.00 | 0.00 | 0.00 | 60 | 1017.9 |
| 20260504011419 | 13 | 230 | 0.0 | 0.0 | 0.00 | 0.00 | 0.00 | 58 | 1018.1 |
| 20260504010915 | 14 | 230 | 0.0 | 0.0 | 0.00 | 0.00 | 0.00 | 56 | 1017.8 |
| 20260504010411 | 15 | 231 | 0.0 | 1.6 | 0.00 | 0.00 | 0.00 | 55 | 1017.7 |
| 20260504005907 | 15 | 237 | 0.0 | 0.0 | 0.00 | 0.00 | 0.00 | 54 | 1017.6 |
| 20260504005404 | 15 | 237 | 0.0 | 1.6 | 0.00 | 0.00 | 0.00 | 53 | 1017.6 |
| 20260504004902 | 15 | 226 | 1.6 | 1.6 | 0.00 | 0.00 | 0.00 | 53 | 1017.4 |
| 20260504004400 | 15 | 251 | 1.6 | 1.6 | 0.00 | 0.00 | 0.00 | 53 | 1017.3 |
| 20260504003855 | 15 | 232 | 0.0 | 0.0 | 0.00 | 0.00 | 0.00 | 52 | 1017.4 |
| 20260504003352 | 15 | 236 | 0.0 | 1.6 | 0.00 | 0.00 | 0.00 | 52 | 1017.6 |
| 20260504002849 | 15 | 234 | 0.0 | 0.0 | 0.00 | 0.00 | 0.00 | 51 | 1017.4 |
| 20260504002346 | 15 | 239 | 0.0 | 0.0 | 0.00 | 0.00 | 0.00 | 52 | 1017.5 |
| 20260504001843 | 16 | 228 | 0.0 | 1.6 | 0.00 | 0.00 | 0.00 | 49 | 1017.5 |
| 20260504001341 | 16 | 226 | 0.0 | 1.6 | 0.00 | 0.00 | 0.00 | 47 | 1017.5 |
| 20260504000837 | 16 | 229 | 0.0 | 1.6 | 0.00 | 0.00 | 0.00 | 45 | 1017.5 |
| 20260504000334 | 16 | 220 | 1.6 | 1.6 | 0.00 | 0.00 | 0.00 | 44 | 1017.5 |
| 20260503235832 | 16 | 226 | 0.0 | 0.0 | 0.00 | 0.00 | 0.00 | 44 | 1017.3 |
| 20260503235329 | 17 | 232 | 0.0 | 1.6 | 0.00 | 0.00 | 0.00 | 43 | 1017.3 |
| 20260503234827 | 17 | 226 | 0.0 | 1.6 | 0.00 | 0.00 | 0.00 | 43 | 1017.1 |
| 20260503234324 | 17 | 223 | 0.0 | 1.6 | 0.00 | 0.00 | 0.00 | 42 | 1017.2 |
| 20260503233822 | 17 | 226 | 1.6 | 1.6 | 0.00 | 0.00 | 0.00 | 41 | 1017.2 |
| 20260503233318 | 17 | 224 | 1.6 | 3.2 | 0.00 | 0.00 | 0.00 | 40 | 1017.1 |
| 20260503232814 | 17 | 202 | 4.8 | 8.0 | 0.00 | 0.00 | 0.00 | 39 | 1017.3 |
| 20260503232312 | 17 | 225 | 1.6 | 1.6 | 0.00 | 0.00 | 0.00 | 40 | 1017.3 |
| 20260503231810 | 18 | 221 | 1.6 | 1.6 | 0.00 | 0.00 | 0.00 | 38 | 1017.1 |
| 20260503231307 | 18 | 231 | 1.6 | 1.6 | 0.00 | 0.00 | 0.00 | 40 | 1017.2 |
| 20260503230802 | 18 | 228 | 1.6 | 1.6 | 0.00 | 0.00 | 0.00 | 38 | 1017.4 |
| 20260503230300 | 18 | 202 | 1.6 | 3.2 | 0.00 | 0.00 | 0.00 | 38 | 1017.1 |
| 20260503225757 | 18 | 191 | 3.2 | 8.0 | 0.00 | 0.00 | 0.00 | 38 | 1017.4 |
| 20260503225252 | 18 | 241 | 1.6 | 1.6 | 0.00 | 0.00 | 0.00 | 39 | 1017.4 |
| 20260503224749 | 18 | 199 | 1.6 | 1.6 | 0.00 | 0.00 | 0.00 | 39 | 1017.1 |
| 20260503224247 | 18 | 215 | 1.6 | 1.6 | 0.00 | 0.00 | 0.00 | 40 | 1017.2 |
| 20260503223744 | 18 | 219 | 1.6 | 1.6 | 0.00 | 0.00 | 0.00 | 39 | 1017.2 |
| 20260503223242 | 18 | 190 | 1.6 | 1.6 | 0.00 | 0.00 | 0.00 | 38 | 1017.3 |
| 20260503222738 | 18 | 200 | 1.6 | 1.6 | 0.00 | 0.00 | 0.00 | 38 | 1017.2 |
| 20260503222236 | 18 | 207 | 3.2 | 3.2 | 0.00 | 0.00 | 0.00 | 36 | 1017.5 |
| 20260503221734 | 18 | 238 | 0.0 | 0.0 | 0.00 | 0.00 | 0.00 | 40 | 1017.2 |
| 20260503221232 | 18 | 202 | 3.2 | 3.2 | 0.00 | 0.00 | 0.00 | 41 | 1017.3 |
| 20260503220728 | 18 | 231 | 0.0 | 0.0 | 0.00 | 0.00 | 0.00 | 40 | 1017.3 |
| 20260503220225 | 18 | 206 | 1.6 | 3.2 | 0.00 | 0.00 | 0.00 | 40 | 1017.5 |
| 20260503215721 | 18 | 232 | 0.0 | 1.6 | 0.00 | 0.00 | 0.00 | 40 | 1017.4 |
| 20260503215219 | 18 | 234 | 0.0 | 0.0 | 0.00 | 0.00 | 0.00 | 42 | 1017.4 |
| 20260503214717 | 18 | 198 | 1.6 | 1.6 | 0.00 | 0.00 | 0.00 | 42 | 1017.5 |
| 20260503214213 | 18 | 247 | 0.0 | 0.0 | 0.00 | 0.00 | 0.00 | 42 | 1017.8 |
| 20260503213711 | 18 | 220 | 1.6 | 1.6 | 0.00 | 0.00 | 0.00 | 42 | 1017.8 |
| 20260503213208 | 18 | 197 | 3.2 | 3.2 | 0.00 | 0.00 | 0.00 | 44 | 1017.7 |
| 20260503212705 | 18 | 220 | 1.6 | 1.6 | 0.00 | 0.00 | 0.00 | 43 | 1017.8 |
| 20260503212203 | 18 | 252 | 1.6 | 1.6 | 0.00 | 0.00 | 0.00 | 41 | 1018.1 |
| 20260503211700 | 18 | 240 | 1.6 | 1.6 | 0.00 | 0.00 | 0.00 | 39 | 1017.8 |
| 20260503211155 | 18 | 187 | 8.0 | 9.7 | 0.00 | 0.00 | 0.00 | 39 | 1018.2 |